owner,sensor,date,latitude,longitude,vertical_datum,direction_of_sea_water_velocity,sea_water_speed,upward_sea_water_velocity,qcFlag 
TABS,ioos:station:wmo:42045:1,2006-02-04T20:00:00Z,26.2168,-96.4998,2.0,172.1699581,9.175543581,-99999.0,'11133222,11111222,99999999' 
TABS,ioos:station:wmo:42045:1,2006-02-04T20:30:00Z,26.2168,-96.4998,2.0,156.8955491,10.37190918,-99999.0,'11111222,11111222,99999999' 
TABS,ioos:station:wmo:42045:1,2006-02-04T21:00:00Z,26.2168,-96.4998,2.0,160.4472637,8.754850084,-99999.0,'11133222,11111222,99999999' 
TABS,ioos:station:wmo:42045:1,2006-02-04T21:30:00Z,26.2168,-96.4998,2.0,168.456881,9.64507128,-99999.0,'11133222,11111222,99999999' 
TABS,ioos:station:wmo:42045:1,2006-02-04T22:00:00Z,26.2168,-96.4998,2.0,165.7019568,9.029695454,-99999.0,'11133222,11111222,99999999' 
TABS,ioos:station:wmo:42045:1,2006-02-04T22:30:00Z,26.2168,-96.4998,2.0,170.9193639,6.906554858,-99999.0,'11133222,11111222,99999999' 
TABS,ioos:station:wmo:42045:1,2006-02-04T23:00:00Z,26.2168,-96.4998,2.0,172.9671897,9.229436603,-99999.0,'11133222,11111222,99999999' 
TABS,ioos:station:wmo:42045:1,2006-02-04T23:30:00Z,26.2168,-96.4998,2.0,176.9714881,7.760837584,-99999.0,'11133222,11111222,99999999' 
TABS,ioos:station:wmo:42045:1,2006-02-05T00:00:00Z,26.2168,-96.4998,2.0,178.4733384,7.132531108,-99999.0,'11133222,11111222,99999999' 
TABS,ioos:station:wmo:42045:1,2006-02-05T00:30:00Z,26.2168,-96.4998,2.0,204.1655264,8.012147028,-99999.0,'11133222,11111222,99999999' 
TABS,ioos:station:wmo:42045:1,2006-02-05T01:00:00Z,26.2168,-96.4998,2.0,204.1218434,6.924687719,-99999.0,'11133222,11111222,99999999' 
TABS,ioos:station:wmo:42045:1,2006-02-05T01:30:00Z,26.2168,-96.4998,2.0,189.1900174,5.885550102,-99999.0,'11133222,11111222,99999999' 
TABS,ioos:station:wmo:42045:1,2006-02-05T02:00:00Z,26.2168,-96.4998,2.0,197.7663776,5.964461417,-99999.0,'11133222,11111222,99999999' 
TABS,ioos:station:wmo:42045:1,2006-02-05T02:30:00Z,26.2168,-96.4998,2.0,202.2487612,4.278551157,-99999.0,'11133222,11111222,99999999' 
TABS,ioos:station:wmo:42045:1,2006-02-05T03:00:00Z,26.2168,-96.4998,2.0,212.2753584,4.943885112,-99999.0,'11133222,11111222,99999999' 
TABS,ioos:station:wmo:42045:1,2006-02-05T03:30:00Z,26.2168,-96.4998,2.0,234.8443359,5.748573736,-99999.0,'11133222,11111222,99999999' 
TABS,ioos:station:wmo:42045:1,2006-02-05T04:00:00Z,26.2168,-96.4998,2.0,233.9433479,4.366440198,-99999.0,'11133222,11111222,99999999' 
TABS,ioos:station:wmo:42045:1,2006-02-05T04:30:00Z,26.2168,-96.4998,2.0,212.7593698,5.636497139,-99999.0,'11133222,11111222,99999999' 
TABS,ioos:station:wmo:42045:1,2006-02-05T05:00:00Z,26.2168,-96.4998,2.0,217.243031,2.148045623,-99999.0,'11133222,11111222,99999999' 
TABS,ioos:station:wmo:42045:1,2006-02-05T05:30:00Z,26.2168,-96.4998,2.0,242.4115622,1.2523977,-99999.0,'11133222,11111222,99999999' 
TABS,ioos:station:wmo:42045:1,2006-02-05T06:00:00Z,26.2168,-96.4998,2.0,142.4312854,0.656048779,-99999.0,'11133222,11111222,99999999' 
TABS,ioos:station:wmo:42045:1,2006-02-05T06:30:00Z,26.2168,-96.4998,2.0,255.3689191,4.909185268,-99999.0,'11133222,11111222,99999999' 
TABS,ioos:station:wmo:42045:1,2006-02-05T07:00:00Z,26.2168,-96.4998,2.0,237.7771743,3.357037384,-99999.0,'11133222,11111222,99999999' 
TABS,ioos:station:wmo:42045:1,2006-02-05T07:30:00Z,26.2168,-96.4998,2.0,295.89024,5.313266415,-99999.0,'11133222,11111222,99999999' 
TABS,ioos:station:wmo:42045:1,2006-02-05T08:00:00Z,26.2168,-96.4998,2.0,275.2438782,3.173279061,-99999.0,'11133222,11111222,99999999' 
TABS,ioos:station:wmo:42045:1,2006-02-05T08:30:00Z,26.2168,-96.4998,2.0,285.4538724,6.079802628,-99999.0,'11133222,11111222,99999999' 
TABS,ioos:station:wmo:42045:1,2006-02-05T09:00:00Z,26.2168,-96.4998,2.0,282.547951,6.628310494,-99999.0,'11133222,11111222,99999999' 
TABS,ioos:station:wmo:42045:1,2006-02-05T09:30:00Z,26.2168,-96.4998,2.0,311.2468751,11.55770306,-99999.0,'11111222,11111222,99999999' 
TABS,ioos:station:wmo:42045:1,2006-02-05T10:00:00Z,26.2168,-96.4998,2.0,283.5901085,4.979407595,-99999.0,'11133222,11111222,99999999' 
TABS,ioos:station:wmo:42045:1,2006-02-05T10:30:00Z,26.2168,-96.4998,2.0,286.9912045,9.034334508,-99999.0,'11133222,11111222,99999999' 
TABS,ioos:station:wmo:42045:1,2006-02-05T11:00:00Z,26.2168,-96.4998,2.0,304.997308,9.485067211,-99999.0,'11133222,11111222,99999999' 
TABS,ioos:station:wmo:42045:1,2006-02-05T11:30:00Z,26.2168,-96.4998,2.0,319.536058,6.348488009,-99999.0,'11133222,11111222,99999999' 
TABS,ioos:station:wmo:42045:1,2006-02-05T12:00:00Z,26.2168,-96.4998,2.0,315.2258879,7.184260574,-99999.0,'11133222,11111222,99999999' 
TABS,ioos:station:wmo:42045:1,2006-02-05T12:30:00Z,26.2168,-96.4998,2.0,341.7439665,13.18359966,-99999.0,'11111222,11111222,99999999' 
TABS,ioos:station:wmo:42045:1,2006-02-05T13:00:00Z,26.2168,-96.4998,2.0,326.353172,11.09955405,-99999.0,'11111222,11111222,99999999' 
TABS,ioos:station:wmo:42045:1,2006-02-05T13:30:00Z,26.2168,-96.4998,2.0,318.8222589,13.6846666,-99999.0,'11111222,11111222,99999999' 
TABS,ioos:station:wmo:42045:1,2006-02-05T14:00:00Z,26.2168,-96.4998,2.0,333.6483594,13.22419752,-99999.0,'11111222,11111222,99999999' 
TABS,ioos:station:wmo:42045:1,2006-02-05T14:30:00Z,26.2168,-96.4998,2.0,343.1538898,13.80232227,-99999.0,'11111222,11111222,99999999' 
TABS,ioos:station:wmo:42045:1,2006-02-05T15:00:00Z,26.2168,-96.4998,2.0,0.202667727,11.32007067,-99999.0,'11111222,11111222,99999999' 
TABS,ioos:station:wmo:42045:1,2006-02-05T15:30:00Z,26.2168,-96.4998,2.0,356.1312158,15.26478955,-99999.0,'11111222,11111222,99999999' 
TABS,ioos:station:wmo:42045:1,2006-02-05T16:00:00Z,26.2168,-96.4998,2.0,5.521787672,12.36738453,-99999.0,'11111222,11111222,99999999' 
TABS,ioos:station:wmo:42045:1,2006-02-05T16:30:00Z,26.2168,-96.4998,2.0,351.6507575,16.25226138,-99999.0,'11111222,11111222,99999999' 
TABS,ioos:station:wmo:42045:1,2006-02-05T17:00:00Z,26.2168,-96.4998,2.0,357.8944668,17.96212961,-99999.0,'11111222,11111222,99999999' 
TABS,ioos:station:wmo:42045:1,2006-02-05T17:30:00Z,26.2168,-96.4998,2.0,0.695722826,19.7714567,-99999.0,'11111222,11111222,99999999' 
TABS,ioos:station:wmo:42045:1,2006-02-05T18:00:00Z,26.2168,-96.4998,2.0,9.47382708,16.64704178,-99999.0,'11111222,11111222,99999999' 
TABS,ioos:station:wmo:42045:1,2006-02-05T18:30:00Z,26.2168,-96.4998,2.0,13.9601069,25.49294216,-99999.0,'11111222,11111222,99999999' 
TABS,ioos:station:wmo:42045:1,2006-02-05T19:00:00Z,26.2168,-96.4998,2.0,8.767897875,22.23988534,-99999.0,'11111222,11111222,99999999' 
TABS,ioos:station:wmo:42045:1,2006-02-05T19:30:00Z,26.2168,-96.4998,2.0,13.58596381,22.52012877,-99999.0,'11111222,11111222,99999999' 
TABS,ioos:station:wmo:42045:1,2006-02-05T20:00:00Z,26.2168,-96.4998,2.0,6.179802729,22.85278976,-99999.0,'11111222,11111222,99999999' 
TABS,ioos:station:wmo:42045:1,2006-02-05T20:30:00Z,26.2168,-96.4998,2.0,15.14258958,22.73952726,-99999.0,'11111222,11111222,99999999' 
TABS,ioos:station:wmo:42045:1,2006-02-05T21:00:00Z,26.2168,-96.4998,2.0,12.02478602,24.52819194,-99999.0,'11111222,11111222,99999999' 
TABS,ioos:station:wmo:42045:1,2006-02-05T21:30:00Z,26.2168,-96.4998,2.0,9.011316658,26.30465358,-99999.0,'11111222,11111222,99999999' 
TABS,ioos:station:wmo:42045:1,2006-02-05T22:00:00Z,26.2168,-96.4998,2.0,11.24215015,21.49238237,-99999.0,'11111222,11111222,99999999' 
TABS,ioos:station:wmo:42045:1,2006-02-05T22:30:00Z,26.2168,-96.4998,2.0,16.79318447,19.31363508,-99999.0,'11111222,11111222,99999999' 
TABS,ioos:station:wmo:42045:1,2006-02-05T23:00:00Z,26.2168,-96.4998,2.0,24.00336685,25.71364813,-99999.0,'11111222,11111222,99999999' 
TABS,ioos:station:wmo:42045:1,2006-02-05T23:30:00Z,26.2168,-96.4998,2.0,13.69055103,22.09782342,-99999.0,'11111222,11111222,99999999' 
TABS,ioos:station:wmo:42045:1,2006-02-06T00:00:00Z,26.2168,-96.4998,2.0,14.0238328,22.07801848,-99999.0,'11111222,11111222,99999999' 
TABS,ioos:station:wmo:42045:1,2006-02-06T00:30:00Z,26.2168,-96.4998,2.0,24.83994867,22.28133748,-99999.0,'11111222,11111222,99999999' 
TABS,ioos:station:wmo:42045:1,2006-02-06T01:00:00Z,26.2168,-96.4998,2.0,43.22449056,22.13600009,-99999.0,'11111222,11111222,99999999' 
TABS,ioos:station:wmo:42045:1,2006-02-06T01:30:00Z,26.2168,-96.4998,2.0,39.53117892,27.52568437,-99999.0,'11111222,11111222,99999999' 
TABS,ioos:station:wmo:42045:1,2006-02-06T02:00:00Z,26.2168,-96.4998,2.0,28.47591893,21.72877355,-99999.0,'11111222,11111222,99999999' 
TABS,ioos:station:wmo:42045:1,2006-02-06T02:30:00Z,26.2168,-96.4998,2.0,33.51259393,22.36839288,-99999.0,'11111222,11111222,99999999' 
TABS,ioos:station:wmo:42045:1,2006-02-06T03:00:00Z,26.2168,-96.4998,2.0,32.73368917,20.60166255,-99999.0,'11111222,11111222,99999999' 
TABS,ioos:station:wmo:42045:1,2006-02-06T03:30:00Z,26.2168,-96.4998,2.0,43.44406968,24.99837195,-99999.0,'11111222,11111222,99999999' 
TABS,ioos:station:wmo:42045:1,2006-02-06T04:00:00Z,26.2168,-96.4998,2.0,38.57976534,25.67342984,-99999.0,'11111222,11111222,99999999' 
TABS,ioos:station:wmo:42045:1,2006-02-06T04:30:00Z,26.2168,-96.4998,2.0,32.84109029,23.76873998,-99999.0,'11111222,11111222,99999999' 
TABS,ioos:station:wmo:42045:1,2006-02-06T05:00:00Z,26.2168,-96.4998,2.0,44.36693,22.39543927,-99999.0,'11111222,11111222,99999999' 
TABS,ioos:station:wmo:42045:1,2006-02-06T05:30:00Z,26.2168,-96.4998,2.0,53.05160011,24.78802332,-99999.0,'11111222,11111222,99999999' 
TABS,ioos:station:wmo:42045:1,2006-02-06T06:00:00Z,26.2168,-96.4998,2.0,43.15376563,20.62994426,-99999.0,'11111222,11111222,99999999' 
TABS,ioos:station:wmo:42045:1,2006-02-06T06:30:00Z,26.2168,-96.4998,2.0,50.57577488,25.39923818,-99999.0,'11111222,11111222,99999999' 
TABS,ioos:station:wmo:42045:1,2006-02-06T07:00:00Z,26.2168,-96.4998,2.0,48.9441235,24.05617592,-99999.0,'11111222,11111222,99999999' 
TABS,ioos:station:wmo:42045:1,2006-02-06T07:30:00Z,26.2168,-96.4998,2.0,50.1558109,22.74063544,-99999.0,'11111222,11111222,99999999' 
TABS,ioos:station:wmo:42045:1,2006-02-06T08:00:00Z,26.2168,-96.4998,2.0,54.3307043,23.76921749,-99999.0,'11111222,11111222,99999999' 
TABS,ioos:station:wmo:42045:1,2006-02-06T08:30:00Z,26.2168,-96.4998,2.0,48.74308477,21.9884265,-99999.0,'11111222,11111222,99999999' 
TABS,ioos:station:wmo:42045:1,2006-02-06T09:00:00Z,26.2168,-96.4998,2.0,57.27548487,19.42281133,-99999.0,'11111222,11111222,99999999' 
TABS,ioos:station:wmo:42045:1,2006-02-06T09:30:00Z,26.2168,-96.4998,2.0,59.76221074,22.20055855,-99999.0,'11111222,11111222,99999999' 
TABS,ioos:station:wmo:42045:1,2006-02-06T10:00:00Z,26.2168,-96.4998,2.0,61.59030575,17.08794312,-99999.0,'11111222,11111222,99999999' 
TABS,ioos:station:wmo:42045:1,2006-02-06T10:30:00Z,26.2168,-96.4998,2.0,56.35106133,15.48445995,-99999.0,'11111222,11111222,99999999' 
TABS,ioos:station:wmo:42045:1,2006-02-06T11:00:00Z,26.2168,-96.4998,2.0,62.00982304,17.62119462,-99999.0,'11111222,11111222,99999999' 
TABS,ioos:station:wmo:42045:1,2006-02-06T11:30:00Z,26.2168,-96.4998,2.0,60.17253167,14.61626833,-99999.0,'11111222,11111222,99999999' 
TABS,ioos:station:wmo:42045:1,2006-02-06T12:00:00Z,26.2168,-96.4998,2.0,63.83700481,12.11084225,-99999.0,'11111222,11111222,99999999' 
TABS,ioos:station:wmo:42045:1,2006-02-06T12:30:00Z,26.2168,-96.4998,2.0,82.40907925,10.21955968,-99999.0,'11111222,11111222,99999999' 
TABS,ioos:station:wmo:42045:1,2006-02-06T13:00:00Z,26.2168,-96.4998,2.0,76.09591744,11.56898008,-99999.0,'11111222,11111222,99999999' 
TABS,ioos:station:wmo:42045:1,2006-02-06T13:30:00Z,26.2168,-96.4998,2.0,81.83964955,8.031319941,-99999.0,'11133222,11111222,99999999' 
TABS,ioos:station:wmo:42045:1,2006-02-06T14:00:00Z,26.2168,-96.4998,2.0,89.18251951,8.41085608,-99999.0,'11133222,11111222,99999999' 
TABS,ioos:station:wmo:42045:1,2006-02-06T14:30:00Z,26.2168,-96.4998,2.0,109.6683534,7.932830516,-99999.0,'11133222,11111222,99999999' 
TABS,ioos:station:wmo:42045:1,2006-02-06T15:00:00Z,26.2168,-96.4998,2.0,113.612896,5.991669217,-99999.0,'11133222,11111222,99999999' 
TABS,ioos:station:wmo:42045:1,2006-02-06T15:30:00Z,26.2168,-96.4998,2.0,108.0379445,6.846495454,-99999.0,'11133222,11111222,99999999' 
TABS,ioos:station:wmo:42045:1,2006-02-06T16:00:00Z,26.2168,-96.4998,2.0,100.3662984,9.16967284,-99999.0,'11133222,11111222,99999999' 
TABS,ioos:station:wmo:42045:1,2006-02-06T16:30:00Z,26.2168,-96.4998,2.0,119.4209076,9.873322642,-99999.0,'11133222,11111222,99999999' 
TABS,ioos:station:wmo:42045:1,2006-02-06T17:00:00Z,26.2168,-96.4998,2.0,137.1540738,9.97018054,-99999.0,'11133222,11111222,99999999' 
TABS,ioos:station:wmo:42045:1,2006-02-06T17:30:00Z,26.2168,-96.4998,2.0,133.9785247,8.727084278,-99999.0,'11133222,11111222,99999999' 
TABS,ioos:station:wmo:42045:1,2006-02-06T18:00:00Z,26.2168,-96.4998,2.0,133.734078,12.48348109,-99999.0,'11111222,11111222,99999999' 
TABS,ioos:station:wmo:42045:1,2006-02-06T18:30:00Z,26.2168,-96.4998,2.0,135.3256029,13.6827373,-99999.0,'11111222,11111222,99999999' 
TABS,ioos:station:wmo:42045:1,2006-02-06T19:00:00Z,26.2168,-96.4998,2.0,148.5654186,16.70109577,-99999.0,'11111222,11111222,99999999' 
TABS,ioos:station:wmo:42045:1,2006-02-06T19:30:00Z,26.2168,-96.4998,2.0,153.3033887,19.49856405,-99999.0,'11111222,11111222,99999999' 
TABS,ioos:station:wmo:42045:1,2006-02-06T20:00:00Z,26.2168,-96.4998,2.0,175.0856619,22.76367501,-99999.0,'11111222,11111222,99999999' 
TABS,ioos:station:wmo:42045:1,2006-02-06T20:30:00Z,26.2168,-96.4998,2.0,182.4144404,24.92212872,-99999.0,'11111222,11111222,99999999' 
TABS,ioos:station:wmo:42045:1,2006-02-06T21:00:00Z,26.2168,-96.4998,2.0,187.131848,30.20369845,-99999.0,'11111222,11111222,99999999' 
TABS,ioos:station:wmo:42045:1,2006-02-06T21:30:00Z,26.2168,-96.4998,2.0,188.4076876,29.74974622,-99999.0,'11111222,11111222,99999999' 
TABS,ioos:station:wmo:42045:1,2006-02-06T22:00:00Z,26.2168,-96.4998,2.0,194.1421031,28.81328166,-99999.0,'11111222,11111222,99999999' 
TABS,ioos:station:wmo:42045:1,2006-02-06T22:30:00Z,26.2168,-96.4998,2.0,186.7680532,27.49159144,-99999.0,'11111222,11111222,99999999' 
TABS,ioos:station:wmo:42045:1,2006-02-06T23:00:00Z,26.2168,-96.4998,2.0,194.3351914,27.86772327,-99999.0,'11111222,11111222,99999999' 
TABS,ioos:station:wmo:42045:1,2006-02-06T23:30:00Z,26.2168,-96.4998,2.0,194.7722075,23.21742664,-99999.0,'11111222,11111222,99999999' 
TABS,ioos:station:wmo:42045:1,2006-02-07T00:00:00Z,26.2168,-96.4998,2.0,201.7305818,25.63154697,-99999.0,'11111222,11111222,99999999' 
TABS,ioos:station:wmo:42045:1,2006-02-07T00:30:00Z,26.2168,-96.4998,2.0,194.5934349,23.93212276,-99999.0,'11111222,11111222,99999999' 
TABS,ioos:station:wmo:42045:1,2006-02-07T01:00:00Z,26.2168,-96.4998,2.0,209.2103852,25.67506573,-99999.0,'11111222,11111222,99999999' 
TABS,ioos:station:wmo:42045:1,2006-02-07T01:30:00Z,26.2168,-96.4998,2.0,211.9262125,26.94623165,-99999.0,'11111222,11111222,99999999' 
TABS,ioos:station:wmo:42045:1,2006-02-07T02:00:00Z,26.2168,-96.4998,2.0,211.3804446,27.80751697,-99999.0,'11111222,11111222,99999999' 
TABS,ioos:station:wmo:42045:1,2006-02-07T02:30:00Z,26.2168,-96.4998,2.0,189.2581539,26.78898468,-99999.0,'11111222,11111222,99999999' 
TABS,ioos:station:wmo:42045:1,2006-02-07T03:00:00Z,26.2168,-96.4998,2.0,193.2236502,29.59474616,-99999.0,'11111222,11111222,99999999' 
TABS,ioos:station:wmo:42045:1,2006-02-07T03:30:00Z,26.2168,-96.4998,2.0,196.5141416,24.34423957,-99999.0,'11111222,11111222,99999999' 
TABS,ioos:station:wmo:42045:1,2006-02-07T04:00:00Z,26.2168,-96.4998,2.0,192.4322369,29.03075955,-99999.0,'11111222,11111222,99999999' 
TABS,ioos:station:wmo:42045:1,2006-02-07T04:30:00Z,26.2168,-96.4998,2.0,195.3654354,31.36102199,-99999.0,'11111222,11111222,99999999' 
TABS,ioos:station:wmo:42045:1,2006-02-07T05:00:00Z,26.2168,-96.4998,2.0,193.0876262,29.01366058,-99999.0,'11111222,11111222,99999999' 
TABS,ioos:station:wmo:42045:1,2006-02-07T05:30:00Z,26.2168,-96.4998,2.0,194.6924657,31.54140295,-99999.0,'11111222,11111222,99999999' 
TABS,ioos:station:wmo:42045:1,2006-02-07T06:00:00Z,26.2168,-96.4998,2.0,189.6778914,32.29969814,-99999.0,'11111222,11111222,99999999' 
TABS,ioos:station:wmo:42045:1,2006-02-07T06:30:00Z,26.2168,-96.4998,2.0,183.5115167,29.87609914,-99999.0,'11111222,11111222,99999999' 
TABS,ioos:station:wmo:42045:1,2006-02-07T07:00:00Z,26.2168,-96.4998,2.0,190.6249197,31.99863278,-99999.0,'11111222,11111222,99999999' 
TABS,ioos:station:wmo:42045:1,2006-02-07T07:30:00Z,26.2168,-96.4998,2.0,188.5402174,32.18691194,-99999.0,'11111222,11111222,99999999' 
TABS,ioos:station:wmo:42045:1,2006-02-07T08:00:00Z,26.2168,-96.4998,2.0,189.2061274,32.75189308,-99999.0,'11111222,11111222,99999999' 
TABS,ioos:station:wmo:42045:1,2006-02-07T08:30:00Z,26.2168,-96.4998,2.0,188.9080153,36.55089192,-99999.0,'11111222,11111222,99999999' 
TABS,ioos:station:wmo:42045:1,2006-02-07T09:00:00Z,26.2168,-96.4998,2.0,191.3000243,34.85572119,-99999.0,'11111222,11111222,99999999' 
TABS,ioos:station:wmo:42045:1,2006-02-07T09:30:00Z,26.2168,-96.4998,2.0,195.3675224,32.56435014,-99999.0,'11111222,11111222,99999999' 
TABS,ioos:station:wmo:42045:1,2006-02-07T10:00:00Z,26.2168,-96.4998,2.0,201.6587231,36.60437815,-99999.0,'11111222,11111222,99999999' 
TABS,ioos:station:wmo:42045:1,2006-02-07T10:30:00Z,26.2168,-96.4998,2.0,200.7580653,37.13036493,-99999.0,'11111222,11111222,99999999' 
TABS,ioos:station:wmo:42045:1,2006-02-07T11:00:00Z,26.2168,-96.4998,2.0,206.0668774,36.02441533,-99999.0,'11111222,11111222,99999999' 
TABS,ioos:station:wmo:42045:1,2006-02-07T11:30:00Z,26.2168,-96.4998,2.0,207.0893556,40.05412838,-99999.0,'11111222,11111222,99999999' 
TABS,ioos:station:wmo:42045:1,2006-02-07T12:00:00Z,26.2168,-96.4998,2.0,204.6507775,38.6966213,-99999.0,'11111222,11111222,99999999' 
TABS,ioos:station:wmo:42045:1,2006-02-07T12:30:00Z,26.2168,-96.4998,2.0,199.9681031,36.5152475,-99999.0,'11111222,11111222,99999999' 
TABS,ioos:station:wmo:42045:1,2006-02-07T13:00:00Z,26.2168,-96.4998,2.0,199.0465523,35.23926929,-99999.0,'11111222,11111222,99999999' 
TABS,ioos:station:wmo:42045:1,2006-02-07T13:30:00Z,26.2168,-96.4998,2.0,204.8976287,37.81449986,-99999.0,'11111222,11111222,99999999' 
TABS,ioos:station:wmo:42045:1,2006-02-07T14:00:00Z,26.2168,-96.4998,2.0,211.5356515,38.81206513,-99999.0,'11111222,11111222,99999999' 
TABS,ioos:station:wmo:42045:1,2006-02-07T14:30:00Z,26.2168,-96.4998,2.0,211.9514518,38.49171989,-99999.0,'11111222,11111222,99999999' 
TABS,ioos:station:wmo:42045:1,2006-02-07T15:00:00Z,26.2168,-96.4998,2.0,208.4554047,34.56606718,-99999.0,'11111222,11111222,99999999' 
TABS,ioos:station:wmo:42045:1,2006-02-07T15:30:00Z,26.2168,-96.4998,2.0,201.7273683,37.49377682,-99999.0,'11111222,11111222,99999999' 
TABS,ioos:station:wmo:42045:1,2006-02-07T16:00:00Z,26.2168,-96.4998,2.0,202.9526199,36.13061029,-99999.0,'11111222,11111222,99999999' 
TABS,ioos:station:wmo:42045:1,2006-02-07T16:30:00Z,26.2168,-96.4998,2.0,208.0244512,35.9900125,-99999.0,'11111222,11111222,99999999' 
TABS,ioos:station:wmo:42045:1,2006-02-07T17:00:00Z,26.2168,-96.4998,2.0,203.5077596,36.22666007,-99999.0,'11111222,11111222,99999999' 
TABS,ioos:station:wmo:42045:1,2006-02-07T17:30:00Z,26.2168,-96.4998,2.0,205.8615245,34.25019708,-99999.0,'11111222,11111222,99999999' 
TABS,ioos:station:wmo:42045:1,2006-02-07T18:00:00Z,26.2168,-96.4998,2.0,207.0718065,32.34375365,-99999.0,'11111222,11111222,99999999' 
TABS,ioos:station:wmo:42045:1,2006-02-07T18:30:00Z,26.2168,-96.4998,2.0,217.0326296,31.63012804,-99999.0,'11111222,11111222,99999999' 
TABS,ioos:station:wmo:42045:1,2006-02-07T19:00:00Z,26.2168,-96.4998,2.0,220.2921664,29.38040333,-99999.0,'11111222,11111222,99999999' 
TABS,ioos:station:wmo:42045:1,2006-02-07T19:30:00Z,26.2168,-96.4998,2.0,219.0865237,27.66070317,-99999.0,'11111222,11111222,99999999' 
TABS,ioos:station:wmo:42045:1,2006-02-07T20:00:00Z,26.2168,-96.4998,2.0,214.7422862,25.21537824,-99999.0,'11111222,11111222,99999999' 
TABS,ioos:station:wmo:42045:1,2006-02-07T20:30:00Z,26.2168,-96.4998,2.0,219.2297093,27.14902945,-99999.0,'11111222,11111222,99999999' 
TABS,ioos:station:wmo:42045:1,2006-02-07T21:00:00Z,26.2168,-96.4998,2.0,222.3152055,26.72260653,-99999.0,'11111222,11111222,99999999' 
TABS,ioos:station:wmo:42045:1,2006-02-07T21:30:00Z,26.2168,-96.4998,2.0,223.6495319,27.30897472,-99999.0,'11111222,11111222,99999999' 
TABS,ioos:station:wmo:42045:1,2006-02-07T22:00:00Z,26.2168,-96.4998,2.0,236.2564798,29.92054144,-99999.0,'11111222,11111222,99999999' 
TABS,ioos:station:wmo:42045:1,2006-02-07T22:30:00Z,26.2168,-96.4998,2.0,236.9680004,27.75625695,-99999.0,'11111222,11111222,99999999' 
TABS,ioos:station:wmo:42045:1,2006-02-07T23:00:00Z,26.2168,-96.4998,2.0,243.7740041,27.17764707,-99999.0,'11111222,11111222,99999999' 
TABS,ioos:station:wmo:42045:1,2006-02-07T23:30:00Z,26.2168,-96.4998,2.0,240.5087334,27.42310887,-99999.0,'11111222,11111222,99999999' 
TABS,ioos:station:wmo:42045:1,2006-02-08T00:00:00Z,26.2168,-96.4998,2.0,247.5029582,26.47467658,-99999.0,'11111222,11111222,99999999' 
TABS,ioos:station:wmo:42045:1,2006-02-08T00:30:00Z,26.2168,-96.4998,2.0,246.7819081,23.59051504,-99999.0,'11111222,11111222,99999999' 
TABS,ioos:station:wmo:42045:1,2006-02-08T01:00:00Z,26.2168,-96.4998,2.0,247.5813213,24.49092077,-99999.0,'11111222,11111222,99999999' 
TABS,ioos:station:wmo:42045:1,2006-02-08T01:30:00Z,26.2168,-96.4998,2.0,248.9656284,23.43128251,-99999.0,'11111222,11111222,99999999' 
TABS,ioos:station:wmo:42045:1,2006-02-08T02:00:00Z,26.2168,-96.4998,2.0,237.7297059,17.90567508,-99999.0,'11111222,11111222,99999999' 
TABS,ioos:station:wmo:42045:1,2006-02-08T02:30:00Z,26.2168,-96.4998,2.0,236.5720584,20.58514027,-99999.0,'11111222,11111222,99999999' 
TABS,ioos:station:wmo:42045:1,2006-02-08T03:00:00Z,26.2168,-96.4998,2.0,238.6082205,21.36760398,-99999.0,'11111222,11111222,99999999' 
TABS,ioos:station:wmo:42045:1,2006-02-08T03:30:00Z,26.2168,-96.4998,2.0,243.9688301,19.66483664,-99999.0,'11111222,11111222,99999999' 
TABS,ioos:station:wmo:42045:1,2006-02-08T04:00:00Z,26.2168,-96.4998,2.0,245.4355444,19.34036453,-99999.0,'11111222,11111222,99999999' 
TABS,ioos:station:wmo:42045:1,2006-02-08T04:30:00Z,26.2168,-96.4998,2.0,241.4273866,19.15249331,-99999.0,'11111222,11111222,99999999' 
TABS,ioos:station:wmo:42045:1,2006-02-08T05:00:00Z,26.2168,-96.4998,2.0,245.0601113,16.55356457,-99999.0,'11111222,11111222,99999999' 
TABS,ioos:station:wmo:42045:1,2006-02-08T05:30:00Z,26.2168,-96.4998,2.0,248.2901018,13.89560002,-99999.0,'11111222,11111222,99999999' 
TABS,ioos:station:wmo:42045:1,2006-02-08T06:00:00Z,26.2168,-96.4998,2.0,248.633386,15.89226541,-99999.0,'11111222,11111222,99999999' 
TABS,ioos:station:wmo:42045:1,2006-02-08T06:30:00Z,26.2168,-96.4998,2.0,250.3780227,14.35349435,-99999.0,'11111222,11111222,99999999' 
TABS,ioos:station:wmo:42045:1,2006-02-08T07:00:00Z,26.2168,-96.4998,2.0,244.0140458,14.15056183,-99999.0,'11111222,11111222,99999999' 
TABS,ioos:station:wmo:42045:1,2006-02-08T07:30:00Z,26.2168,-96.4998,2.0,246.0244598,13.75692553,-99999.0,'11111222,11111222,99999999' 
TABS,ioos:station:wmo:42045:1,2006-02-08T08:00:00Z,26.2168,-96.4998,2.0,248.4958774,13.94033716,-99999.0,'11111222,11111222,99999999' 
TABS,ioos:station:wmo:42045:1,2006-02-08T08:30:00Z,26.2168,-96.4998,2.0,243.0467736,12.5535732,-99999.0,'11111222,11111222,99999999' 
TABS,ioos:station:wmo:42045:1,2006-02-08T09:00:00Z,26.2168,-96.4998,2.0,238.0612049,13.61038207,-99999.0,'11111222,11111222,99999999' 
TABS,ioos:station:wmo:42045:1,2006-02-08T09:30:00Z,26.2168,-96.4998,2.0,248.6490294,12.74466555,-99999.0,'11111222,11111222,99999999' 
TABS,ioos:station:wmo:42045:1,2006-02-08T10:00:00Z,26.2168,-96.4998,2.0,236.6676835,11.53798943,-99999.0,'11111222,11111222,99999999' 
TABS,ioos:station:wmo:42045:1,2006-02-08T10:30:00Z,26.2168,-96.4998,2.0,238.4785462,12.1649702,-99999.0,'11111222,11111222,99999999' 
TABS,ioos:station:wmo:42045:1,2006-02-08T11:00:00Z,26.2168,-96.4998,2.0,230.1314007,11.70001709,-99999.0,'11111222,11111222,99999999' 
TABS,ioos:station:wmo:42045:1,2006-02-08T11:30:00Z,26.2168,-96.4998,2.0,232.3037945,12.62531188,-99999.0,'11111222,11111222,99999999' 
TABS,ioos:station:wmo:42045:1,2006-02-08T12:00:00Z,26.2168,-96.4998,2.0,228.0696257,10.43065195,-99999.0,'11111222,11111222,99999999' 